| time (UTC) | temp F | wind direction | speed MPH | gust MPH | rain 1hr in | rain 24hr in | rain mn in | humidity % | barometer mb |
| 20260507134559 | 68 | 33 | 1.0 | 5.0 | 0.01 | 0.01 | 0.01 | 85 | 1015.6 |
| 20260507134037 | 68 | 40 | 2.0 | 5.0 | 0.01 | 0.01 | 0.01 | 85 | 1015.6 |
| 20260507133535 | 68 | 40 | 3.0 | 5.0 | 0.01 | 0.01 | 0.01 | 84 | 1015.4 |
| 20260507133056 | 68 | 0 | 0.0 | 4.0 | 0.01 | 0.01 | 0.01 | 84 | 1015.4 |
| 20260507132535 | 68 | 333 | 2.0 | 4.0 | 0.01 | 0.01 | 0.01 | 84 | 1015.0 |
| 20260507132035 | 68 | 0 | 0.0 | 5.0 | 0.00 | 0.00 | 0.00 | 84 | 1015.3 |
| 20260507131550 | 68 | 134 | 1.0 | 5.0 | 0.00 | 0.00 | 0.00 | 84 | 1015.3 |
| 20260507131036 | 68 | 164 | 2.0 | 5.0 | 0.00 | 0.00 | 0.00 | 84 | 1015.4 |
| 20260507130536 | 68 | 50 | 0.0 | 5.0 | 0.00 | 0.00 | 0.00 | 83 | 1015.4 |
| 20260507130052 | 68 | 46 | 2.0 | 4.0 | 0.00 | 0.00 | 0.00 | 83 | 1015.0 |
| 20260507125536 | 68 | 0 | 1.0 | 3.0 | 0.00 | 0.00 | 0.00 | 83 | 1015.3 |
| 20260507125037 | 68 | 140 | 0.0 | 3.0 | 0.00 | 0.00 | 0.00 | 83 | 1015.2 |
| 20260507124549 | 68 | 0 | 0.0 | 3.0 | 0.00 | 0.00 | 0.00 | 83 | 1015.0 |
| 20260507124035 | 68 | 140 | 2.0 | 3.0 | 0.00 | 0.00 | 0.00 | 83 | 1014.9 |
| 20260507123535 | 68 | 0 | 0.0 | 3.0 | 0.00 | 0.00 | 0.00 | 83 | 1014.8 |
| 20260507123054 | 68 | 140 | 1.0 | 4.0 | 0.00 | 0.00 | 0.00 | 83 | 1014.6 |
| 20260507122535 | 68 | 140 | 2.0 | 4.0 | 0.00 | 0.00 | 0.00 | 82 | 1014.6 |
| 20260507122035 | 68 | 140 | 1.0 | 3.0 | 0.00 | 0.00 | 0.00 | 82 | 1014.5 |
| 20260507121552 | 68 | 0 | 0.0 | 0.0 | 0.00 | 0.00 | 0.00 | 82 | 1014.4 |
| 20260507121035 | 68 | 0 | 0.0 | 1.0 | 0.00 | 0.00 | 0.00 | 82 | 1014.5 |
| 20260507120537 | 69 | 0 | 0.0 | 3.0 | 0.00 | 0.00 | 0.00 | 81 | 1014.5 |
| 20260507115535 | 69 | 360 | 1.0 | 6.0 | 0.00 | 0.00 | 0.00 | 80 | 1014.3 |
| 20260507115037 | 69 | 0 | 2.0 | 6.0 | 0.00 | 0.00 | 0.00 | 80 | 1014.2 |
| 20260507114558 | 69 | 28 | 3.0 | 5.0 | 0.00 | 0.00 | 0.00 | 79 | 1014.0 |
| 20260507114034 | 69 | 58 | 1.0 | 4.0 | 0.00 | 0.00 | 0.00 | 79 | 1014.2 |
| 20260507113538 | 69 | 58 | 2.0 | 4.0 | 0.00 | 0.00 | 0.00 | 79 | 1014.2 |
| 20260507113051 | 69 | 0 | 1.0 | 3.0 | 0.00 | 0.00 | 0.00 | 79 | 1014.2 |
| 20260507112534 | 69 | 58 | 1.0 | 5.0 | 0.00 | 0.00 | 0.00 | 79 | 1014.2 |
| 20260507112036 | 69 | 58 | 2.0 | 8.0 | 0.00 | 0.00 | 0.00 | 79 | 1014.1 |
| 20260507111548 | 69 | 60 | 2.0 | 8.0 | 0.00 | 0.00 | 0.00 | 79 | 1013.8 |
| 20260507111039 | 69 | 101 | 4.0 | 8.0 | 0.00 | 0.00 | 0.00 | 79 | 1013.5 |
| 20260507110537 | 69 | 76 | 3.0 | 7.0 | 0.00 | 0.00 | 0.00 | 79 | 1013.6 |
| 20260507110047 | 69 | 60 | 3.0 | 8.0 | 0.00 | 0.00 | 0.00 | 79 | 1013.5 |
| 20260507105535 | 69 | 86 | 4.0 | 8.0 | 0.00 | 0.00 | 0.00 | 79 | 1013.5 |
| 20260507105035 | 69 | 99 | 3.0 | 6.0 | 0.00 | 0.00 | 0.00 | 79 | 1013.8 |
| 20260507104548 | 69 | 46 | 2.0 | 8.0 | 0.00 | 0.00 | 0.00 | 78 | 1013.8 |
| 20260507104035 | 69 | 86 | 4.0 | 8.0 | 0.00 | 0.00 | 0.00 | 78 | 1013.8 |
| 20260507103535 | 69 | 96 | 3.0 | 9.0 | 0.00 | 0.00 | 0.00 | 78 | 1013.4 |
| 20260507103049 | 69 | 107 | 4.0 | 9.0 | 0.00 | 0.00 | 0.00 | 78 | 1013.5 |
| 20260507102536 | 69 | 88 | 4.0 | 9.0 | 0.00 | 0.00 | 0.00 | 78 | 1013.4 |
| 20260507102036 | 69 | 80 | 4.0 | 9.0 | 0.00 | 0.00 | 0.00 | 78 | 1013.2 |
| 20260507101542 | 69 | 70 | 5.0 | 7.0 | 0.00 | 0.00 | 0.00 | 78 | 1013.1 |
| 20260507101037 | 69 | 134 | 3.0 | 7.0 | 0.00 | 0.00 | 0.00 | 78 | 1013.0 |
| 20260507100540 | 69 | 81 | 4.0 | 7.0 | 0.00 | 0.00 | 0.00 | 78 | 1013.1 |
| 20260507100043 | 69 | 79 | 4.0 | 7.0 | 0.00 | 0.00 | 0.00 | 78 | 1013.1 |
| 20260507095536 | 69 | 58 | 3.0 | 7.0 | 0.00 | 0.00 | 0.00 | 78 | 1013.4 |
| 20260507095034 | 69 | 74 | 3.0 | 7.0 | 0.00 | 0.00 | 0.00 | 78 | 1013.3 |
| 20260507094553 | 69 | 105 | 1.0 | 7.0 | 0.00 | 0.00 | 0.00 | 78 | 1013.6 |
| 20260507094035 | 69 | 105 | 1.0 | 8.0 | 0.00 | 0.00 | 0.00 | 78 | 1013.3 |
| 20260507093535 | 69 | 98 | 4.0 | 8.0 | 0.00 | 0.00 | 0.00 | 78 | 1013.3 |
| 20260507093046 | 69 | 105 | 1.0 | 5.0 | 0.00 | 0.00 | 0.00 | 78 | 1013.3 |
| 20260507092535 | 69 | 87 | 2.0 | 8.0 | 0.00 | 0.00 | 0.00 | 79 | 1013.3 |
| 20260507092035 | 69 | 65 | 3.0 | 8.0 | 0.00 | 0.00 | 0.00 | 78 | 1013.1 |
| 20260507091546 | 69 | 82 | 3.0 | 6.0 | 0.00 | 0.00 | 0.00 | 79 | 1013.2 |
| 20260507091035 | 69 | 105 | 2.0 | 6.0 | 0.00 | 0.00 | 0.00 | 79 | 1013.2 |
| 20260507090534 | 69 | 113 | 2.0 | 6.0 | 0.00 | 0.00 | 0.00 | 79 | 1013.3 |
| 20260507090045 | 69 | 39 | 2.0 | 4.0 | 0.00 | 0.00 | 0.00 | 78 | 1013.1 |
| 20260507085536 | 69 | 39 | 1.0 | 3.0 | 0.00 | 0.00 | 0.00 | 78 | 1013.1 |
| 20260507085035 | 69 | 39 | 1.0 | 4.0 | 0.00 | 0.00 | 0.00 | 78 | 1013.2 |
| 20260507084542 | 69 | 39 | 2.0 | 6.0 | 0.00 | 0.00 | 0.00 | 78 | 1013.2 |
| 20260507084035 | 69 | 39 | 2.0 | 6.0 | 0.00 | 0.00 | 0.00 | 78 | 1013.5 |
| 20260507083535 | 69 | 80 | 3.0 | 6.0 | 0.00 | 0.00 | 0.00 | 78 | 1013.6 |
| 20260507083045 | 69 | 71 | 3.0 | 7.0 | 0.00 | 0.00 | 0.00 | 78 | 1013.4 |
| 20260507082536 | 69 | 101 | 2.0 | 7.0 | 0.00 | 0.00 | 0.00 | 78 | 1013.3 |
| 20260507082035 | 69 | 105 | 2.0 | 8.0 | 0.00 | 0.00 | 0.00 | 77 | 1013.3 |
| 20260507081548 | 69 | 86 | 3.0 | 10.0 | 0.00 | 0.00 | 0.00 | 77 | 1013.3 |
| 20260507081035 | 69 | 61 | 4.0 | 10.0 | 0.00 | 0.00 | 0.00 | 77 | 1013.1 |
| 20260507080539 | 69 | 74 | 4.0 | 8.0 | 0.00 | 0.00 | 0.00 | 76 | 1013.5 |
| 20260507080056 | 69 | 66 | 4.0 | 8.0 | 0.00 | 0.00 | 0.00 | 76 | 1013.5 |
| 20260507075535 | 69 | 79 | 3.0 | 7.0 | 0.00 | 0.00 | 0.00 | 76 | 1013.6 |
| 20260507075035 | 69 | 92 | 3.0 | 8.0 | 0.00 | 0.00 | 0.00 | 76 | 1013.8 |
| 20260507074548 | 70 | 94 | 4.0 | 8.0 | 0.00 | 0.00 | 0.00 | 76 | 1013.7 |
| 20260507074037 | 70 | 82 | 4.0 | 7.0 | 0.00 | 0.00 | 0.00 | 76 | 1013.8 |
| 20260507073535 | 70 | 103 | 2.0 | 6.0 | 0.00 | 0.00 | 0.00 | 76 | 1013.8 |
| 20260507073107 | 70 | 93 | 3.0 | 7.0 | 0.00 | 0.00 | 0.00 | 75 | 1013.9 |
| 20260507072535 | 70 | 111 | 2.0 | 9.0 | 0.00 | 0.00 | 0.00 | 75 | 1013.9 |
| 20260507072035 | 70 | 88 | 4.0 | 9.0 | 0.00 | 0.00 | 0.00 | 75 | 1013.8 |
| 20260507071546 | 70 | 100 | 3.0 | 8.0 | 0.00 | 0.00 | 0.00 | 75 | 1013.7 |
| 20260507071035 | 70 | 106 | 3.0 | 8.0 | 0.00 | 0.00 | 0.00 | 75 | 1013.8 |
| 20260507070535 | 70 | 126 | 3.0 | 8.0 | 0.00 | 0.00 | 0.00 | 75 | 1013.9 |
| 20260507070051 | 70 | 98 | 3.0 | 6.0 | 0.00 | 0.00 | 0.00 | 75 | 1013.9 |
| 20260507065536 | 70 | 99 | 3.0 | 9.0 | 0.00 | 0.00 | 0.00 | 74 | 1013.9 |
| 20260507065035 | 70 | 84 | 4.0 | 10.0 | 0.00 | 0.00 | 0.00 | 74 | 1013.8 |
| 20260507064609 | 71 | 49 | 4.0 | 10.0 | 0.00 | 0.00 | 0.00 | 73 | 1013.8 |
| 20260507064036 | 71 | 81 | 3.0 | 10.0 | 0.00 | 0.00 | 0.00 | 73 | 1013.8 |
| 20260507063536 | 71 | 99 | 4.0 | 10.0 | 0.00 | 0.00 | 0.00 | 73 | 1013.8 |
| 20260507063056 | 71 | 86 | 5.0 | 9.0 | 0.00 | 0.00 | 0.00 | 73 | 1013.8 |
| 20260507062535 | 71 | 87 | 5.0 | 11.0 | 0.00 | 0.00 | 0.00 | 73 | 1013.7 |
| 20260507062035 | 71 | 84 | 5.0 | 11.0 | 0.00 | 0.00 | 0.00 | 73 | 1013.6 |
| 20260507061549 | 71 | 59 | 6.0 | 11.0 | 0.00 | 0.00 | 0.00 | 73 | 1013.7 |
| 20260507061036 | 72 | 80 | 4.0 | 9.0 | 0.00 | 0.00 | 0.00 | 73 | 1013.5 |
| 20260507060535 | 72 | 98 | 4.0 | 9.0 | 0.00 | 0.00 | 0.00 | 73 | 1013.5 |
| 20260507060052 | 72 | 89 | 4.0 | 9.0 | 0.00 | 0.00 | 0.00 | 73 | 1013.6 |
| 20260507055535 | 72 | 96 | 3.0 | 7.0 | 0.00 | 0.00 | 0.00 | 74 | 1013.4 |
| 20260507055035 | 72 | 118 | 4.0 | 7.0 | 0.00 | 0.00 | 0.00 | 74 | 1013.5 |
| 20260507054550 | 72 | 128 | 2.0 | 7.0 | 0.00 | 0.00 | 0.00 | 74 | 1013.4 |
| 20260507054035 | 72 | 132 | 3.0 | 9.0 | 0.00 | 0.00 | 0.00 | 74 | 1013.5 |
| 20260507053538 | 73 | 94 | 4.0 | 9.0 | 0.00 | 0.00 | 0.00 | 73 | 1013.2 |
| 20260507053049 | 73 | 131 | 4.0 | 8.0 | 0.00 | 0.00 | 0.00 | 73 | 1013.1 |
| 20260507052534 | 73 | 149 | 4.0 | 7.0 | 0.00 | 0.00 | 0.00 | 73 | 1013.1 |
| 20260507052035 | 73 | 111 | 4.0 | 7.0 | 0.00 | 0.00 | 0.00 | 73 | 1013.2 |
| 20260507051552 | 73 | 112 | 4.0 | 9.0 | 0.00 | 0.00 | 0.00 | 72 | 1013.2 |
| 20260507051039 | 73 | 82 | 4.0 | 10.0 | 0.00 | 0.00 | 0.00 | 72 | 1013.1 |
| 20260507050536 | 73 | 102 | 5.0 | 10.0 | 0.00 | 0.00 | 0.00 | 72 | 1013.1 |
| 20260507050053 | 73 | 81 | 4.0 | 8.0 | 0.00 | 0.00 | 0.00 | 72 | 1013.1 |
| 20260507045535 | 73 | 84 | 3.0 | 8.0 | 0.00 | 0.00 | 0.00 | 72 | 1013.1 |
| 20260507045035 | 73 | 73 | 2.0 | 4.0 | 0.00 | 0.00 | 0.00 | 72 | 1013.2 |
| 20260507044553 | 74 | 73 | 1.0 | 4.0 | 0.00 | 0.00 | 0.00 | 71 | 1013.0 |
| 20260507044038 | 74 | 360 | 0.0 | 2.0 | 0.00 | 0.00 | 0.00 | 71 | 1013.1 |
| 20260507043535 | 74 | 360 | 1.0 | 2.0 | 0.00 | 0.00 | 0.00 | 70 | 1012.9 |
| 20260507043051 | 74 | 0 | 0.0 | 2.0 | 0.00 | 0.00 | 0.00 | 70 | 1013.2 |
| 20260507042535 | 74 | 0 | 0.0 | 3.0 | 0.00 | 0.00 | 0.00 | 69 | 1013.0 |
| 20260507042036 | 74 | 0 | 1.0 | 4.0 | 0.00 | 0.00 | 0.00 | 69 | 1012.7 |
| 20260507041548 | 74 | 360 | 2.0 | 4.0 | 0.00 | 0.00 | 0.00 | 69 | 1012.3 |
| 20260507041037 | 75 | 56 | 2.0 | 4.0 | 0.00 | 0.00 | 0.00 | 69 | 1012.2 |
| 20260507040534 | 75 | 56 | 2.0 | 4.0 | 0.00 | 0.00 | 0.00 | 68 | 1012.1 |
| 20260507040104 | 75 | 56 | 1.0 | 7.0 | 0.00 | 0.00 | 0.00 | 68 | 1012.2 |
| 20260507035534 | 75 | 56 | 1.0 | 7.0 | 0.00 | 0.00 | 0.00 | 67 | 1011.9 |
| 20260507035034 | 75 | 40 | 3.0 | 11.0 | 0.00 | 0.00 | 0.00 | 67 | 1011.4 |
| 20260507034605 | 75 | 39 | 4.0 | 11.0 | 0.00 | 0.00 | 0.00 | 66 | 1011.3 |
| 20260507034034 | 76 | 63 | 4.0 | 11.0 | 0.00 | 0.00 | 0.00 | 66 | 1011.1 |
| 20260507033536 | 76 | 30 | 6.0 | 12.0 | 0.00 | 0.00 | 0.00 | 65 | 1011.0 |
| 20260507033104 | 76 | 44 | 5.0 | 12.0 | 0.00 | 0.00 | 0.00 | 65 | 1011.1 |
| 20260507032537 | 76 | 51 | 5.0 | 12.0 | 0.00 | 0.00 | 0.00 | 64 | 1011.0 |
| 20260507032035 | 76 | 71 | 7.0 | 14.0 | 0.00 | 0.00 | 0.00 | 63 | 1010.7 |
| 20260507031548 | 76 | 32 | 9.0 | 14.0 | 0.00 | 0.00 | 0.00 | 63 | 1010.7 |
| 20260507031035 | 77 | 39 | 8.0 | 13.0 | 0.00 | 0.00 | 0.00 | 62 | 1010.7 |
| 20260507030538 | 77 | 59 | 5.0 | 11.0 | 0.00 | 0.00 | 0.00 | 61 | 1011.0 |
| 20260507030046 | 77 | 57 | 5.0 | 11.0 | 0.00 | 0.00 | 0.00 | 61 | 1010.9 |
| 20260507025535 | 77 | 30 | 4.0 | 9.0 | 0.00 | 0.00 | 0.00 | 60 | 1010.9 |
| 20260507025035 | 77 | 53 | 3.0 | 6.0 | 0.00 | 0.00 | 0.00 | 59 | 1011.0 |
| 20260507024554 | 78 | 52 | 2.0 | 6.0 | 0.00 | 0.00 | 0.00 | 59 | 1011.0 |
| 20260507024034 | 78 | 45 | 4.0 | 9.0 | 0.00 | 0.00 | 0.00 | 58 | 1010.9 |
| 20260507023538 | 78 | 29 | 3.0 | 10.0 | 0.00 | 0.00 | 0.00 | 57 | 1011.0 |
| 20260507023049 | 78 | 47 | 3.0 | 10.0 | 0.00 | 0.00 | 0.00 | 56 | 1010.9 |
| 20260507022535 | 78 | 28 | 5.0 | 10.0 | 0.00 | 0.00 | 0.00 | 56 | 1010.8 |
| 20260507022035 | 79 | 49 | 3.0 | 7.0 | 0.00 | 0.00 | 0.00 | 55 | 1010.8 |
| 20260507021557 | 79 | 38 | 3.0 | 7.0 | 0.00 | 0.00 | 0.00 | 54 | 1010.8 |
| 20260507021039 | 79 | 49 | 3.0 | 5.0 | 0.00 | 0.00 | 0.00 | 54 | 1010.7 |
| 20260507020534 | 80 | 65 | 2.0 | 5.0 | 0.00 | 0.00 | 0.00 | 53 | 1010.7 |
| 20260507020051 | 80 | 53 | 2.0 | 5.0 | 0.00 | 0.00 | 0.00 | 52 | 1010.6 |
| 20260507015534 | 80 | 51 | 3.0 | 5.0 | 0.00 | 0.00 | 0.00 | 52 | 1010.5 |
| 20260507015039 | 80 | 55 | 2.0 | 5.0 | 0.00 | 0.00 | 0.00 | 51 | 1010.4 |
| 20260507014552 | 81 | 55 | 3.0 | 5.0 | 0.00 | 0.00 | 0.00 | 50 | 1010.3 |
| 20260507014036 | 81 | 31 | 2.0 | 7.0 | 0.00 | 0.00 | 0.00 | 50 | 1010.4 |
| 20260507013535 | 81 | 53 | 3.0 | 7.0 | 0.00 | 0.00 | 0.00 | 49 | 1010.3 |
| 20260507013045 | 81 | 78 | 3.0 | 7.0 | 0.00 | 0.00 | 0.00 | 49 | 1010.2 |
| 20260507012535 | 82 | 63 | 3.0 | 7.0 | 0.00 | 0.00 | 0.00 | 49 | 1010.2 |
| 20260507012035 | 82 | 51 | 2.0 | 5.0 | 0.00 | 0.00 | 0.00 | 49 | 1010.0 |
| 20260507011545 | 82 | 74 | 2.0 | 7.0 | 0.00 | 0.00 | 0.00 | 48 | 1010.0 |
| 20260507011033 | 83 | 72 | 2.0 | 7.0 | 0.00 | 0.00 | 0.00 | 47 | 1009.9 |
| 20260507010535 | 83 | 55 | 4.0 | 10.0 | 0.00 | 0.00 | 0.00 | 47 | 1009.8 |
| 20260507010052 | 83 | 79 | 3.0 | 10.0 | 0.00 | 0.00 | 0.00 | 47 | 1009.8 |
| 20260507005534 | 84 | 56 | 4.0 | 10.0 | 0.00 | 0.00 | 0.00 | 46 | 1009.7 |
| 20260507005034 | 84 | 55 | 4.0 | 12.0 | 0.00 | 0.00 | 0.00 | 45 | 1009.6 |
| 20260507004553 | 84 | 55 | 6.0 | 14.0 | 0.00 | 0.00 | 0.00 | 45 | 1009.6 |
| 20260507004035 | 84 | 70 | 8.0 | 14.0 | 0.00 | 0.00 | 0.00 | 45 | 1009.5 |
| 20260507003535 | 85 | 96 | 6.0 | 12.0 | 0.00 | 0.00 | 0.00 | 45 | 1009.4 |
| 20260507003051 | 85 | 79 | 8.0 | 12.0 | 0.00 | 0.00 | 0.00 | 44 | 1009.4 |
| 20260507002535 | 85 | 61 | 7.0 | 12.0 | 0.00 | 0.00 | 0.00 | 44 | 1009.4 |
| 20260507002035 | 85 | 92 | 6.0 | 12.0 | 0.00 | 0.00 | 0.00 | 42 | 1009.3 |
| 20260507001605 | 85 | 78 | 6.0 | 14.0 | 0.00 | 0.00 | 0.00 | 41 | 1009.3 |
| 20260507001038 | 85 | 86 | 8.0 | 14.0 | 0.00 | 0.00 | 0.00 | 41 | 1009.1 |
| 20260507000535 | 85 | 50 | 7.0 | 15.0 | 0.00 | 0.00 | 0.00 | 42 | 1009.1 |
| 20260507000056 | 85 | 64 | 7.0 | 15.0 | 0.00 | 0.00 | 0.00 | 42 | 1009.0 |
| 20260506235535 | 85 | 58 | 7.0 | 15.0 | 0.00 | 0.00 | 0.00 | 41 | 1009.0 |
| 20260506235038 | 85 | 57 | 8.0 | 14.0 | 0.00 | 0.00 | 0.00 | 42 | 1009.0 |
| 20260506234556 | 85 | 81 | 8.0 | 14.0 | 0.00 | 0.00 | 0.00 | 43 | 1008.9 |
| 20260506234035 | 85 | 79 | 6.0 | 14.0 | 0.00 | 0.00 | 0.00 | 44 | 1009.0 |
| 20260506233533 | 86 | 49 | 8.0 | 14.0 | 0.00 | 0.00 | 0.00 | 44 | 1008.9 |
| 20260506233044 | 86 | 59 | 8.0 | 13.0 | 0.00 | 0.00 | 0.00 | 45 | 1008.8 |
| 20260506232535 | 86 | 62 | 7.0 | 13.0 | 0.00 | 0.00 | 0.00 | 45 | 1008.7 |
| 20260506232034 | 86 | 72 | 7.0 | 14.0 | 0.00 | 0.00 | 0.00 | 44 | 1008.7 |
| 20260506231555 | 86 | 69 | 10.0 | 15.0 | 0.00 | 0.00 | 0.00 | 42 | 1008.8 |
| 20260506231034 | 86 | 63 | 8.0 | 17.0 | 0.00 | 0.00 | 0.00 | 45 | 1008.8 |
| 20260506230534 | 86 | 44 | 8.0 | 17.0 | 0.00 | 0.00 | 0.00 | 45 | 1008.7 |
| 20260506230048 | 86 | 77 | 10.0 | 17.0 | 0.00 | 0.00 | 0.00 | 44 | 1008.6 |
| 20260506225535 | 86 | 73 | 8.0 | 18.0 | 0.00 | 0.00 | 0.00 | 45 | 1008.5 |
| 20260506225036 | 86 | 78 | 8.0 | 18.0 | 0.00 | 0.00 | 0.00 | 43 | 1008.3 |
| 20260506224603 | 86 | 56 | 9.0 | 14.0 | 0.00 | 0.00 | 0.00 | 44 | 1008.2 |
| 20260506224035 | 86 | 57 | 7.0 | 16.0 | 0.00 | 0.00 | 0.00 | 43 | 1008.5 |
| 20260506223534 | 86 | 81 | 9.0 | 17.0 | 0.00 | 0.00 | 0.00 | 44 | 1008.6 |
| 20260506223057 | 86 | 24 | 11.0 | 17.0 | 0.00 | 0.00 | 0.00 | 44 | 1008.5 |
| 20260506222536 | 87 | 32 | 10.0 | 16.0 | 0.00 | 0.00 | 0.00 | 45 | 1008.6 |
| 20260506222036 | 87 | 34 | 10.0 | 15.0 | 0.00 | 0.00 | 0.00 | 45 | 1008.6 |
| 20260506221552 | 87 | 62 | 9.0 | 18.0 | 0.00 | 0.00 | 0.00 | 42 | 1008.7 |
| 20260506221035 | 87 | 81 | 9.0 | 18.0 | 0.00 | 0.00 | 0.00 | 44 | 1008.7 |
| 20260506220535 | 87 | 65 | 9.0 | 16.0 | 0.00 | 0.00 | 0.00 | 43 | 1008.6 |
| 20260506220059 | 87 | 24 | 9.0 | 19.0 | 0.00 | 0.00 | 0.00 | 43 | 1008.6 |
| 20260506215535 | 87 | 60 | 8.0 | 19.0 | 0.00 | 0.00 | 0.00 | 43 | 1008.5 |
| 20260506215035 | 87 | 5 | 10.0 | 17.0 | 0.00 | 0.00 | 0.00 | 44 | 1008.2 |
| 20260506214549 | 87 | 80 | 8.0 | 17.0 | 0.00 | 0.00 | 0.00 | 49 | 1008.3 |
| 20260506214036 | 87 | 60 | 10.0 | 17.0 | 0.00 | 0.00 | 0.00 | 46 | 1008.5 |
| 20260506213535 | 87 | 40 | 10.0 | 17.0 | 0.00 | 0.00 | 0.00 | 45 | 1008.7 |
| 20260506213045 | 87 | 63 | 6.0 | 15.0 | 0.00 | 0.00 | 0.00 | 51 | 1009.0 |
| 20260506212536 | 87 | 76 | 9.0 | 18.0 | 0.00 | 0.00 | 0.00 | 53 | 1008.7 |
| 20260506212035 | 86 | 19 | 10.0 | 18.0 | 0.00 | 0.00 | 0.00 | 48 | 1008.7 |
| 20260506211554 | 87 | 50 | 7.0 | 17.0 | 0.00 | 0.00 | 0.00 | 52 | 1009.1 |
| 20260506211037 | 86 | 56 | 8.0 | 18.0 | 0.00 | 0.00 | 0.00 | 51 | 1009.0 |
| 20260506210535 | 86 | 30 | 10.0 | 18.0 | 0.00 | 0.00 | 0.00 | 48 | 1008.9 |
| 20260506210046 | 86 | 67 | 6.0 | 13.0 | 0.00 | 0.00 | 0.00 | 48 | 1009.1 |
| 20260506205538 | 87 | 28 | 7.0 | 14.0 | 0.00 | 0.00 | 0.00 | 47 | 1009.1 |
| 20260506205037 | 87 | 360 | 5.0 | 14.0 | 0.00 | 0.00 | 0.00 | 48 | 1009.1 |
| 20260506204542 | 87 | 31 | 6.0 | 16.0 | 0.00 | 0.00 | 0.00 | 45 | 1009.2 |
| 20260506204036 | 88 | 13 | 8.0 | 16.0 | 0.00 | 0.00 | 0.00 | 46 | 1009.1 |
| 20260506203535 | 88 | 27 | 5.0 | 12.0 | 0.00 | 0.00 | 0.00 | 48 | 1009.3 |
| 20260506203041 | 87 | 30 | 6.0 | 14.0 | 0.00 | 0.00 | 0.00 | 47 | 1009.2 |
| 20260506202537 | 86 | 22 | 7.0 | 14.0 | 0.00 | 0.00 | 0.00 | 47 | 1009.3 |
| 20260506202033 | 86 | 352 | 8.0 | 14.0 | 0.00 | 0.00 | 0.00 | 48 | 1009.3 |
| 20260506201546 | 85 | 57 | 5.0 | 12.0 | 0.00 | 0.00 | 0.00 | 51 | 1009.3 |
| 20260506201034 | 85 | 36 | 4.0 | 11.0 | 0.00 | 0.00 | 0.00 | 53 | 1009.5 |
| 20260506200534 | 84 | 15 | 7.0 | 11.0 | 0.00 | 0.00 | 0.00 | 53 | 1009.3 |
| 20260506200045 | 84 | 38 | 7.0 | 11.0 | 0.00 | 0.00 | 0.00 | 53 | 1009.3 |
| 20260506195536 | 85 | 5 | 6.0 | 11.0 | 0.00 | 0.00 | 0.00 | 58 | 1009.3 |
| 20260506195035 | 85 | 360 | 4.0 | 11.0 | 0.00 | 0.00 | 0.00 | 60 | 1009.6 |
| 20260506194546 | 84 | 346 | 6.0 | 11.0 | 0.00 | 0.00 | 0.00 | 61 | 1009.6 |
| 20260506194033 | 84 | 348 | 5.0 | 11.0 | 0.00 | 0.00 | 0.00 | 62 | 1009.7 |
| 20260506193534 | 85 | 54 | 4.0 | 11.0 | 0.00 | 0.00 | 0.00 | 63 | 1009.6 |
| 20260506193052 | 84 | 351 | 6.0 | 11.0 | 0.00 | 0.00 | 0.00 | 64 | 1009.7 |
| 20260506192534 | 84 | 32 | 6.0 | 11.0 | 0.00 | 0.00 | 0.00 | 64 | 1009.8 |
| 20260506192037 | 84 | 19 | 6.0 | 11.0 | 0.00 | 0.00 | 0.00 | 65 | 1009.8 |
| 20260506191547 | 84 | 14 | 5.0 | 12.0 | 0.00 | 0.00 | 0.00 | 66 | 1009.8 |
| 20260506191033 | 84 | 28 | 7.0 | 12.0 | 0.00 | 0.00 | 0.00 | 67 | 1009.9 |
| 20260506190534 | 84 | 15 | 4.0 | 11.0 | 0.00 | 0.00 | 0.00 | 67 | 1010.0 |
| 20260506190049 | 84 | 360 | 5.0 | 11.0 | 0.00 | 0.00 | 0.00 | 67 | 1010.0 |
| 20260506185535 | 84 | 50 | 5.0 | 10.0 | 0.00 | 0.00 | 0.00 | 68 | 1010.1 |
| 20260506185035 | 84 | 5 | 4.0 | 11.0 | 0.00 | 0.00 | 0.00 | 68 | 1010.2 |
| 20260506184546 | 84 | 38 | 5.0 | 11.0 | 0.00 | 0.00 | 0.00 | 68 | 1010.3 |
| 20260506184035 | 84 | 9 | 5.0 | 11.0 | 0.00 | 0.00 | 0.00 | 69 | 1010.3 |
| 20260506183538 | 84 | 42 | 5.0 | 10.0 | 0.00 | 0.00 | 0.00 | 68 | 1010.2 |
| 20260506183045 | 84 | 55 | 2.0 | 10.0 | 0.00 | 0.00 | 0.00 | 68 | 1010.3 |
| 20260506182537 | 84 | 360 | 5.0 | 11.0 | 0.00 | 0.00 | 0.00 | 67 | 1010.4 |
| 20260506182037 | 84 | 61 | 5.0 | 11.0 | 0.00 | 0.00 | 0.00 | 68 | 1010.3 |
| 20260506181608 | 84 | 351 | 4.0 | 11.0 | 0.00 | 0.00 | 0.00 | 67 | 1010.6 |
| 20260506181038 | 84 | 326 | 6.0 | 12.0 | 0.00 | 0.00 | 0.00 | 67 | 1010.7 |
| 20260506180537 | 84 | 352 | 7.0 | 13.0 | 0.00 | 0.00 | 0.00 | 67 | 1010.6 |
| 20260506180054 | 84 | 35 | 5.0 | 13.0 | 0.00 | 0.00 | 0.00 | 68 | 1010.7 |
| 20260506175536 | 84 | 46 | 7.0 | 13.0 | 0.00 | 0.00 | 0.00 | 68 | 1010.8 |
| 20260506175036 | 84 | 341 | 8.0 | 17.0 | 0.00 | 0.00 | 0.00 | 66 | 1010.9 |
| 20260506174553 | 83 | 46 | 8.0 | 17.0 | 0.00 | 0.00 | 0.00 | 68 | 1010.8 |
| 20260506174039 | 83 | 31 | 9.0 | 14.0 | 0.00 | 0.00 | 0.00 | 67 | 1010.9 |
| 20260506173536 | 82 | 17 | 9.0 | 14.0 | 0.00 | 0.00 | 0.00 | 69 | 1011.0 |
| 20260506173121 | 82 | 72 | 8.0 | 15.0 | 0.00 | 0.00 | 0.00 | 70 | 1010.9 |
| 20260506172536 | 82 | 57 | 8.0 | 15.0 | 0.00 | 0.00 | 0.00 | 70 | 1011.1 |
| 20260506172036 | 81 | 13 | 6.0 | 15.0 | 0.00 | 0.00 | 0.00 | 74 | 1011.1 |
| 20260506171555 | 79 | 35 | 6.0 | 17.0 | 0.00 | 0.00 | 0.00 | 75 | 1011.0 |
| 20260506171036 | 78 | 48 | 11.0 | 17.0 | 0.00 | 0.00 | 0.00 | 76 | 1011.0 |
| 20260506170536 | 78 | 47 | 9.0 | 18.0 | 0.00 | 0.00 | 0.00 | 79 | 1011.0 |
| 20260506170059 | 77 | 51 | 12.0 | 18.0 | 0.00 | 0.00 | 0.00 | 80 | 1010.9 |
| 20260506165537 | 77 | 12 | 9.0 | 15.0 | 0.00 | 0.00 | 0.00 | 83 | 1010.8 |
| 20260506165037 | 76 | 46 | 9.0 | 17.0 | 0.00 | 0.00 | 0.00 | 84 | 1010.7 |
| 20260506164550 | 76 | 34 | 10.0 | 17.0 | 0.00 | 0.00 | 0.00 | 84 | 1010.8 |
| 20260506164036 | 76 | 17 | 8.0 | 19.0 | 0.00 | 0.00 | 0.00 | 83 | 1010.9 |
| 20260506163539 | 77 | 352 | 9.0 | 19.0 | 0.00 | 0.00 | 0.00 | 82 | 1010.8 |
| 20260506163048 | 78 | 352 | 13.0 | 19.0 | 0.00 | 0.00 | 0.00 | 80 | 1010.7 |
| 20260506162537 | 80 | 309 | 2.0 | 8.0 | 0.00 | 0.00 | 0.00 | 82 | 1010.6 |
| 20260506162036 | 80 | 57 | 3.0 | 7.0 | 0.00 | 0.00 | 0.00 | 82 | 1010.4 |
| 20260506161550 | 80 | 25 | 1.0 | 6.0 | 0.00 | 0.00 | 0.00 | 83 | 1010.3 |
| 20260506161037 | 80 | 5 | 2.0 | 9.0 | 0.00 | 0.00 | 0.00 | 84 | 1010.3 |
| 20260506160536 | 80 | 67 | 3.0 | 9.0 | 0.00 | 0.00 | 0.00 | 84 | 1010.2 |
| 20260506155534 | 79 | 98 | 4.0 | 7.0 | 0.00 | 0.00 | 0.00 | 86 | 1010.0 |
| 20260506155037 | 78 | 74 | 4.0 | 9.0 | 0.00 | 0.00 | 0.00 | 86 | 1010.0 |
| 20260506154551 | 78 | 65 | 4.0 | 9.0 | 0.00 | 0.00 | 0.00 | 86 | 1010.0 |
| 20260506154036 | 78 | 64 | 4.0 | 9.0 | 0.00 | 0.00 | 0.00 | 86 | 1010.0 |
| 20260506153535 | 78 | 84 | 4.0 | 8.0 | 0.00 | 0.00 | 0.00 | 86 | 1009.9 |
| 20260506153050 | 78 | 29 | 2.0 | 6.0 | 0.00 | 0.00 | 0.00 | 87 | 1009.8 |
| 20260506152536 | 78 | 88 | 3.0 | 5.0 | 0.00 | 0.00 | 0.00 | 86 | 1009.7 |
| 20260506152036 | 77 | 92 | 1.0 | 4.0 | 0.00 | 0.00 | 0.00 | 86 | 1009.7 |
| 20260506151547 | 77 | 160 | 0.0 | 2.0 | 0.00 | 0.00 | 0.00 | 86 | 1009.7 |
| 20260506151037 | 77 | 160 | 0.0 | 2.0 | 0.00 | 0.00 | 0.00 | 87 | 1009.7 |
| 20260506150537 | 77 | 0 | 0.0 | 5.0 | 0.00 | 0.00 | 0.00 | 86 | 1009.6 |
| 20260506150051 | 77 | 0 | 1.0 | 5.0 | 0.00 | 0.00 | 0.00 | 86 | 1009.6 |
| 20260506145538 | 77 | 160 | 3.0 | 5.0 | 0.00 | 0.00 | 0.00 | 86 | 1009.5 |
| 20260506145038 | 77 | 134 | 2.0 | 6.0 | 0.00 | 0.00 | 0.00 | 86 | 1009.5 |
| 20260506144553 | 77 | 96 | 1.0 | 6.0 | 0.00 | 0.00 | 0.00 | 86 | 1009.4 |
| 20260506144034 | 77 | 160 | 3.0 | 6.0 | 0.00 | 0.00 | 0.00 | 86 | 1009.4 |
| 20260506143536 | 77 | 149 | 2.0 | 7.0 | 0.00 | 0.00 | 0.00 | 86 | 1009.4 |
| 20260506143045 | 77 | 154 | 3.0 | 7.0 | 0.00 | 0.00 | 0.00 | 86 | 1009.3 |
| 20260506142536 | 77 | 151 | 4.0 | 8.0 | 0.00 | 0.00 | 0.00 | 86 | 1009.2 |
| 20260506142038 | 77 | 155 | 2.0 | 8.0 | 0.00 | 0.00 | 0.00 | 86 | 1009.2 |
| 20260506141552 | 77 | 158 | 2.0 | 8.0 | 0.00 | 0.00 | 0.00 | 86 | 1009.1 |
| 20260506141035 | 77 | 158 | 1.0 | 9.0 | 0.00 | 0.00 | 0.00 | 87 | 1009.0 |
| 20260506140535 | 77 | 173 | 5.0 | 11.0 | 0.00 | 0.00 | 0.00 | 87 | 1008.9 |
| 20260506140045 | 77 | 170 | 6.0 | 11.0 | 0.00 | 0.00 | 0.00 | 87 | 1008.8 |
| 20260506135537 | 77 | 150 | 6.0 | 10.0 | 0.00 | 0.00 | 0.00 | 87 | 1008.7 |
| 20260506135037 | 76 | 142 | 6.0 | 10.0 | 0.00 | 0.00 | 0.00 | 87 | 1008.7 |